Change the Weather History Date:

Monday, September 9, 2013

  Actual Average Record
Temperature  
Mean Temperature 84 °F -  
Max Temperature 96 °F 83 °F 103 °F (1955)
Min Temperature 72 °F 58 °F 35 °F (2008)
Cooling Degree Days 19    
Growing Degree Days 34 (Base 50)    
Moisture  
Dew Point 60 °F    
Average Humidity 47    
Maximum Humidity 72    
Minimum Humidity 26    
Precipitation  
Precipitation 0.00 in - - ()
Sea Level Pressure  
Sea Level Pressure 29.85 in    
Wind  
Wind Speed 11 mph (SSW)    
Max Wind Speed 24 mph    
Max Gust Speed 31 mph    
Visibility 10 miles    
Events      
Averages and records for this station are not official NWS values.
T = Trace of Precipitation, MM = Missing Value Source: NWS Daily Summary

Daily Weather History Graph

Daily Weather History Graph

Search for Another Location

Airport or City:

Trip Planner

Search our weather history database for the weather conditions in past years. The results will help you decide how hot, cold, wet, or windy it might be!

Date:

Astronomy

Sep. 09, 2013 Rise Set
Actual Time 7:02 AM CDT 7:45 PM CDT
Civil Twilight 6:34 AM CDT 8:12 PM CDT
Nautical Twilight 6:02 AM CDT 8:45 PM CDT
Astronomical Twilight 5:28 AM CDT 9:18 PM CDT
Moon 11:25 AM CDT (9/9) 10:02 PM CDT (9/9)
Length of Visible Light 13h 37m
Length of Day
12h 42m
Waxing Crescent, 19% of the Moon is Illuminated
Sep 9
Waxing Crescent
Sep 12
First Quarter
Sep 19
Full
Sep 26
Last Quarter
Oct 4
New

Hourly Weather History & Observations

Time (CDT) Temp. Heat Index Dew Point Humidity Pressure Visibility Wind Dir Wind Speed Gust Speed Precip Events Conditions
12:15 AM 79.2 °F - 64.8 °F 61% 29.84 in 10.0 mi South 8.1 mph - N/A   Clear
12:35 AM 79.0 °F - 64.6 °F 61% 29.84 in 10.0 mi South 8.1 mph - N/A   Clear
12:55 AM 79.7 °F - 64.4 °F 59% 29.84 in 10.0 mi South 8.1 mph - N/A   Clear
1:15 AM 79.0 °F - 64.4 °F 61% 29.84 in 10.0 mi South 8.1 mph - N/A   Clear
1:35 AM 78.3 °F - 64.2 °F 62% 29.84 in 10.0 mi South 9.2 mph - N/A   Clear
1:55 AM 77.4 °F - 64.0 °F 63% 29.84 in 10.0 mi South 9.2 mph - N/A   Clear
2:15 AM 78.3 °F - 63.3 °F 60% 29.84 in 10.0 mi South 10.4 mph - N/A   Clear
2:35 AM 78.6 °F - 62.6 °F 58% 29.84 in 10.0 mi SSW 10.4 mph - N/A   Clear
2:55 AM 78.8 °F - 62.2 °F 57% 29.84 in 10.0 mi SSW 10.4 mph - N/A   Clear
3:15 AM 78.6 °F - 62.1 °F 57% 29.84 in 10.0 mi SSW 11.5 mph - N/A   Clear
3:35 AM 78.1 °F - 61.9 °F 57% 29.84 in 10.0 mi SSW 9.2 mph - N/A   Clear
3:55 AM 77.5 °F - 61.7 °F 58% 29.84 in 10.0 mi SSW 10.4 mph - N/A   Clear
4:15 AM 76.6 °F - 61.7 °F 60% 29.84 in 10.0 mi SSW 9.2 mph - N/A   Clear
4:35 AM 76.1 °F - 61.7 °F 61% 29.85 in 10.0 mi SSW 9.2 mph - N/A   Clear
4:55 AM 75.6 °F - 61.5 °F 62% 29.85 in 10.0 mi SSW 8.1 mph - N/A   Clear
5:15 AM 75.2 °F - 61.5 °F 62% 29.85 in 10.0 mi SSW 6.9 mph - N/A   Clear
5:35 AM 74.1 °F - 61.7 °F 65% 29.85 in 10.0 mi SSW 5.8 mph - N/A   Clear
5:55 AM 72.9 °F - 62.8 °F 71% 29.85 in 10.0 mi SSW 4.6 mph - N/A   Clear
6:15 AM 72.5 °F - 62.8 °F 71% 29.85 in 10.0 mi South 6.9 mph - N/A   Clear
6:35 AM 72.7 °F - 62.8 °F 71% 29.85 in 10.0 mi South 5.8 mph - N/A   Clear
6:55 AM 72.3 °F - 62.8 °F 72% 29.86 in 10.0 mi South 6.9 mph - N/A   Clear
7:15 AM 72.5 °F - 62.6 °F 71% 29.86 in 10.0 mi South 6.9 mph - N/A   Clear
7:35 AM 72.9 °F - 62.6 °F 70% 29.87 in 10.0 mi South 8.1 mph - N/A   Clear
7:55 AM 73.4 °F - 63.0 °F 70% 29.87 in 10.0 mi South 5.8 mph - N/A   Clear
8:15 AM 74.3 °F - 63.0 °F 68% 29.87 in 10.0 mi South 5.8 mph - N/A   Clear
8:35 AM 75.9 °F - 62.8 °F 64% 29.87 in 10.0 mi South 5.8 mph - N/A   Clear
8:55 AM 77.5 °F - 62.1 °F 59% 29.88 in 10.0 mi SSW 6.9 mph - N/A   Clear
9:15 AM 80.2 °F 81.3 °F 61.5 °F 53% 29.87 in 10.0 mi SW 10.4 mph - N/A   Clear
9:35 AM 81.9 °F 82.6 °F 61.7 °F 50% 29.88 in 10.0 mi SSW 10.4 mph - N/A   Clear
9:55 AM 83.5 °F 84.1 °F 62.1 °F 48% 29.87 in 10.0 mi SSW 13.8 mph - N/A   Clear
10:15 AM 85.1 °F 85.7 °F 62.1 °F 46% 29.87 in 10.0 mi SW 16.1 mph 19.6 mph N/A   Clear
10:35 AM 86.4 °F 87.0 °F 62.6 °F 45% 29.88 in 10.0 mi SSW 13.8 mph - N/A   Clear
10:55 AM 87.8 °F 88.5 °F 63.0 °F 43% 29.88 in 10.0 mi SW 12.7 mph - N/A   Clear
11:15 AM 89.1 °F 89.6 °F 62.4 °F 41% 29.87 in 10.0 mi SSW 15.0 mph - N/A   Clear
11:35 AM 90.5 °F 91.1 °F 62.2 °F 39% 29.87 in 10.0 mi SW 16.1 mph 20.7 mph N/A   Clear
11:55 AM 91.4 °F 91.7 °F 62.1 °F 37% 29.87 in 10.0 mi SSW 17.3 mph 21.9 mph N/A   Clear
12:15 PM 92.7 °F 93.2 °F 62.1 °F 36% 29.87 in 10.0 mi SSW 16.1 mph 23.0 mph N/A   Clear
12:35 PM 93.4 °F 93.5 °F 61.0 °F 34% 29.86 in 10.0 mi SW 18.4 mph 24.2 mph N/A   Clear
12:55 PM 94.5 °F 94.8 °F 61.2 °F 33% 29.85 in 10.0 mi SSW 18.4 mph 26.5 mph N/A   Clear
1:15 PM 94.8 °F 94.5 °F 60.1 °F 31% 29.85 in 10.0 mi SSW 20.7 mph 26.5 mph N/A   Clear
1:35 PM 95.0 °F 95.2 °F 60.4 °F 32% 29.85 in 10.0 mi SSW 15.0 mph - N/A   Clear
1:55 PM 96.3 °F 96.3 °F 59.9 °F 30% 29.85 in 10.0 mi SSW 24.2 mph 27.6 mph N/A   Clear
2:15 PM 96.6 °F 96.8 °F 60.1 °F 30% 29.84 in 10.0 mi SSW 16.1 mph 25.3 mph N/A   Clear
2:55 PM 96.3 °F 95.9 °F 59.4 °F 29% 29.84 in 10.0 mi South 20.7 mph 27.6 mph N/A   Clear
3:15 PM 96.6 °F 95.6 °F 57.2 °F 27% 29.83 in 10.0 mi SW 21.9 mph 31.1 mph N/A   Clear
3:35 PM 96.4 °F 95.7 °F 58.3 °F 28% 29.83 in 10.0 mi SSW 17.3 mph 27.6 mph N/A   Clear
3:55 PM 96.8 °F 95.5 °F 56.1 °F 26% 29.83 in 10.0 mi SSW 21.9 mph 25.3 mph N/A   Clear
4:15 PM 96.8 °F 95.5 °F 56.1 °F 26% 29.83 in 10.0 mi SSW 17.3 mph 27.6 mph N/A   Clear
4:35 PM 96.6 °F 95.2 °F 56.1 °F 26% 29.82 in 10.0 mi SSW 18.4 mph 26.5 mph N/A   Clear
4:55 PM 95.9 °F 94.6 °F 56.8 °F 27% 29.83 in 10.0 mi SSW 13.8 mph 24.2 mph N/A   Clear
5:15 PM 95.5 °F 94.4 °F 57.2 °F 28% 29.82 in 10.0 mi SSW 20.7 mph 25.3 mph N/A   Clear
5:35 PM 95.0 °F 93.0 °F 55.4 °F 26% 29.83 in 10.0 mi SSW 19.6 mph - N/A   Clear
5:55 PM 94.3 °F 92.7 °F 56.5 °F 28% 29.83 in 10.0 mi SSW 17.3 mph 21.9 mph N/A   Clear
6:15 PM 93.2 °F 91.9 °F 57.2 °F 30% 29.83 in 10.0 mi SSW 16.1 mph 23.0 mph N/A   Clear
6:35 PM 92.3 °F 90.5 °F 55.9 °F 29% 29.83 in 10.0 mi SSW 16.1 mph 21.9 mph N/A   Clear
6:55 PM 90.9 °F 88.9 °F 55.8 °F 30% 29.83 in 10.0 mi SSW 12.7 mph 18.4 mph N/A   Clear
7:15 PM 89.1 °F 87.5 °F 56.3 °F 33% 29.83 in 10.0 mi SSW 9.2 mph - N/A   Clear
7:35 PM 86.9 °F 85.6 °F 57.0 °F 36% 29.84 in 10.0 mi South 8.1 mph - N/A   Clear
7:55 PM 84.7 °F 83.7 °F 56.8 °F 38% 29.85 in 10.0 mi South 8.1 mph - N/A   Clear
8:15 PM 82.8 °F 82.4 °F 57.2 °F 42% 29.85 in 10.0 mi South 8.1 mph - N/A   Clear
8:35 PM 82.4 °F 81.9 °F 56.3 °F 41% 29.85 in 10.0 mi South 8.1 mph - N/A   Clear
8:55 PM 82.4 °F 81.8 °F 55.8 °F 40% 29.86 in 10.0 mi South 8.1 mph - N/A   Clear
9:15 PM 82.2 °F 81.8 °F 56.7 °F 41% 29.87 in 10.0 mi South 9.2 mph - N/A   Clear
9:35 PM 82.4 °F 82.2 °F 57.7 °F 43% 29.87 in 10.0 mi South 10.4 mph - N/A   Clear
9:55 PM 82.8 °F 82.4 °F 57.6 °F 42% 29.87 in 10.0 mi South 11.5 mph - N/A   Clear
10:15 PM 81.7 °F 81.5 °F 57.4 °F 43% 29.87 in 10.0 mi South 13.8 mph 17.3 mph N/A   Clear
10:35 PM 80.6 °F 80.8 °F 57.6 °F 45% 29.88 in 10.0 mi South 11.5 mph - N/A   Clear
10:55 PM 80.1 °F 80.4 °F 57.0 °F 45% 29.88 in 10.0 mi South 11.5 mph - N/A   Clear
11:15 PM 79.0 °F - 57.2 °F 47% 29.88 in 10.0 mi South 12.7 mph - N/A   Clear
11:35 PM 78.4 °F - 57.2 °F 48% 29.89 in 10.0 mi South 12.7 mph - N/A   Clear
11:55 PM 78.8 °F - 57.6 °F 48% 29.89 in 10.0 mi South 12.7 mph 19.6 mph N/A   Clear